Terug naar catalogus

COSMOS 2251 DEB

ActiefLEO
NORAD 33793·DEBRIS·🇷🇺 Russia

Gelanceerd Jun 16, 1993 vanaf Plesetsk Cosmodrome

Loading…

Volgende Passages (komende 24 uur)

TLE

VersSource: Space-Track

Epoch: Sep 14, 2026, 07:56 UTC

1 33793U 93036AJ  26257.33086366  .00000907  00000-0  36087-3 0  9996
2 33793  73.9832   8.6663 0076434  95.9926 295.7616 14.28476402911412

Volg COSMOS 2251 DEB in realtime met AllMySat

Download on the App Store